• In Netherlands
  • List of Countries
  • For 7 days
  • Water Temperature
  • Satellite Maps
  • Weather Map
  • Weather Widgets
  • user-avatar
    Login

    Hourly Weather Korçe

    Today, 23 September, Saturday

    Time Temperature Precipitation Wind Pressure Humidity
    00:00 +7°C° 0 mm 1 mps 669 mmHg 76%
    01:00 +7°C° 0 mm 1 mps 669 mmHg 76%
    02:00 +7°C° 0 mm 1 mps 669 mmHg 76%
    03:00 +7°C° 0 mm 1 mps 669 mmHg 76%
    04:00 +7°C° 0 mm 1 mps 669 mmHg 76%
    05:00 +8°C° 0 mm 1 mps 669 mmHg 72%
    06:00 +9°C° 0 mm 1 mps 670 mmHg 67%
    07:00 +10°C° 0 mm 1 mps 670 mmHg 63%
    08:00 +12°C° 0 mm 1 mps 671 mmHg 55%
    09:00 +15°C° 0 mm 1 mps 671 mmHg 48%
    10:00 +17°C° 0 mm 2 mps 672 mmHg 40%
    11:00 +18°C° 0 mm 2 mps 672 mmHg 38%
    12:00 +18°C° 0 mm 2 mps 672 mmHg 36%
    13:00 +19°C° 0 mm 2 mps 672 mmHg 34%
    14:00 +19°C° 0 mm 2 mps 671 mmHg 37%
    15:00 +18°C° 0 mm 3 mps 671 mmHg 39%
    16:00 +18°C° 0 mm 3 mps 671 mmHg 41%
    17:00 +16°C° 0 mm 2 mps 670 mmHg 50%
    18:00 +14°C° 0 mm 2 mps 670 mmHg 58%
    19:00 +12°C° 0 mm 1 mps 670 mmHg 66%
    20:00 +11°C° 0 mm 1 mps 670 mmHg 68%
    21:00 +11°C° 0 mm 1 mps 670 mmHg 70%
    22:00 +11°C° 0 mm 1 mps 670 mmHg 72%
    23:00 +10°C° 0 mm 1 mps 670 mmHg 72%

    Tomorrow, 24 September, Sunday

    Time Temperature Precipitation Wind Pressure Humidity
    00:00 +10°C° 0 mm 1 mps 669 mmHg 72%
    01:00 +10°C° 0 mm 1 mps 669 mmHg 71%
    02:00 +10°C° 0 mm 1 mps 669 mmHg 70%
    03:00 +10°C° 0 mm 1 mps 669 mmHg 68%
    04:00 +10°C° 0 mm 1 mps 669 mmHg 67%
    05:00 +11°C° 0 mm 1 mps 669 mmHg 63%
    06:00 +12°C° 0 mm 1 mps 669 mmHg 60%
    07:00 +13°C° 0 mm 1 mps 670 mmHg 57%
    08:00 +15°C° 0 mm 1 mps 670 mmHg 50%
    09:00 +18°C° 0 mm 1 mps 671 mmHg 43%
    10:00 +20°C° 0 mm 1 mps 671 mmHg 35%
    11:00 +21°C° 0 mm 1 mps 671 mmHg 34%
    12:00 +20°C° 0 mm 2 mps 671 mmHg 32%
    13:00 +21°C° 0 mm 2 mps 671 mmHg 31%
    14:00 +20°C° 0 mm 2 mps 670 mmHg 33%
    15:00 +20°C° 0 mm 2 mps 670 mmHg 36%
    16:00 +19°C° 0 mm 2 mps 670 mmHg 38%
    17:00 +18°C° 0 mm 2 mps 669 mmHg 45%
    18:00 +16°C° 0 mm 1 mps 669 mmHg 52%
    19:00 +14°C° 0 mm 1 mps 669 mmHg 59%
    20:00 +13°C° 0 mm 1 mps 669 mmHg 60%
    21:00 +13°C° 0 mm 1 mps 669 mmHg 62%
    22:00 +13°C° 0 mm 1 mps 669 mmHg 63%
    23:00 +13°C° 0 mm 1 mps 669 mmHg 65%

    Day after tomorrow, 25 September, Monday

    Time Temperature Precipitation Wind Pressure Humidity
    00:00 +12°C° 0 mm 1 mps 668 mmHg 66%
    01:00 +12°C° 0 mm 1 mps 668 mmHg 68%
    02:00 +12°C° 0.2 mm 1 mps 668 mmHg 70%
    03:00 +12°C° 0.2 mm 2 mps 668 mmHg 73%
    04:00 +12°C° 0.2 mm 2 mps 668 mmHg 75%
    05:00 +12°C° 0.3 mm 2 mps 668 mmHg 76%
    06:00 +12°C° 0.3 mm 2 mps 668 mmHg 76%
    07:00 +13°C° 0.3 mm 2 mps 668 mmHg 77%
    08:00 +13°C° 0.2 mm 2 mps 668 mmHg 72%
    09:00 +14°C° 0.2 mm 2 mps 669 mmHg 67%
    10:00 +15°C° 0.2 mm 2 mps 669 mmHg 62%
    11:00 +15°C° 0.4 mm 2 mps 669 mmHg 64%
    12:00 +14°C° 0.4 mm 2 mps 669 mmHg 66%
    13:00 +14°C° 0.4 mm 2 mps 668 mmHg 69%
    14:00 +14°C° 0.6 mm 2 mps 668 mmHg 71%
    15:00 +13°C° 0.6 mm 2 mps 668 mmHg 74%
    16:00 +13°C° 0.6 mm 2 mps 668 mmHg 76%
    17:00 +13°C° 0.8 mm 2 mps 668 mmHg 79%
    18:00 +12°C° 0.8 mm 2 mps 668 mmHg 82%
    19:00 +12°C° 0.8 mm 2 mps 668 mmHg 85%
    20:00 +10°C° 0.2 mm 2 mps 668 mmHg 85%
    21:00 +10°C° 0.2 mm 2 mps 668 mmHg 86%
    22:00 +10°C° 0.2 mm 2 mps 668 mmHg 86%
    23:00 +11°C° 0 mm 1 mps 668 mmHg 87%

    26 September, Tuesday

    Time Temperature Precipitation Wind Pressure Humidity
    00:00 +11°C° 0 mm 1 mps 667 mmHg 87%
    01:00 +10°C° 0 mm 1 mps 667 mmHg 88%
    02:00 +10°C° 0 mm 1 mps 667 mmHg 88%
    03:00 +10°C° 0 mm 1 mps 667 mmHg 88%
    04:00 +9°C° 0 mm 1 mps 667 mmHg 88%
    05:00 +10°C° 0 mm 1 mps 667 mmHg 85%
    06:00 +11°C° 0 mm 1 mps 667 mmHg 83%
    07:00 +11°C° 0 mm 1 mps 667 mmHg 80%
    08:00 +13°C° 0 mm 1 mps 668 mmHg 71%
    09:00 +16°C° 0 mm 1 mps 669 mmHg 63%
    10:00 +19°C° 0 mm 1 mps 670 mmHg 54%
    11:00 +19°C° 0.3 mm 1 mps 669 mmHg 52%
    12:00 +19°C° 0.3 mm 1 mps 669 mmHg 51%
    13:00 +19°C° 0.3 mm 2 mps 669 mmHg 49%
    14:00 +18°C° 0.4 mm 2 mps 669 mmHg 52%
    15:00 +18°C° 0.4 mm 2 mps 669 mmHg 54%
    16:00 +17°C° 0.4 mm 2 mps 669 mmHg 57%
    17:00 +16°C° 0.1 mm 1 mps 668 mmHg 62%
    18:00 +14°C° 0.1 mm 1 mps 668 mmHg 68%
    19:00 +13°C° 0.1 mm 1 mps 668 mmHg 74%
    20:00 +13°C° 0 mm 1 mps 668 mmHg 75%
    21:00 +12°C° 0 mm 1 mps 668 mmHg 76%
    22:00 +12°C° 0 mm 1 mps 668 mmHg 77%
    23:00 +11°C° 0 mm 1 mps 668 mmHg 78%

    27 September, Wednesday

    Time Temperature Precipitation Wind Pressure Humidity
    00:00 +11°C° 0 mm 1 mps 668 mmHg 79%
    01:00 +11°C° 0 mm 1 mps 668 mmHg 80%
    02:00 +11°C° 0 mm 1 mps 668 mmHg 80%
    03:00 +11°C° 0 mm 1 mps 668 mmHg 81%
    04:00 +10°C° 0 mm 1 mps 668 mmHg 81%
    05:00 +11°C° 0 mm 1 mps 668 mmHg 78%
    06:00 +12°C° 0 mm 1 mps 669 mmHg 76%
    07:00 +13°C° 0 mm 1 mps 669 mmHg 73%
    08:00 +15°C° 0 mm 1 mps 670 mmHg 65%
    09:00 +16°C° 0 mm 1 mps 670 mmHg 58%
    10:00 +19°C° 0 mm 1 mps 671 mmHg 50%
    11:00 +20°C° 0.2 mm 1 mps 671 mmHg 48%
    12:00 +19°C° 0.2 mm 2 mps 671 mmHg 46%
    13:00 +20°C° 0.2 mm 2 mps 671 mmHg 44%
    14:00 +19°C° 0.5 mm 2 mps 670 mmHg 48%
    15:00 +18°C° 0.5 mm 2 mps 670 mmHg 52%
    16:00 +18°C° 0.5 mm 2 mps 670 mmHg 56%
    17:00 +16°C° 0.5 mm 1 mps 670 mmHg 63%
    18:00 +15°C° 0.5 mm 1 mps 670 mmHg 70%
    19:00 +12°C° 0.5 mm 0 mps 670 mmHg 76%
    20:00 +13°C° 0.1 mm 1 mps 670 mmHg 77%
    21:00 +13°C° 0.1 mm 1 mps 670 mmHg 79%
    22:00 +12°C° 0.1 mm 1 mps 670 mmHg 80%
    23:00 +12°C° 0.1 mm 1 mps 670 mmHg 81%

    28 September, Thursday

    Time Temperature Precipitation Wind Pressure Humidity
    00:00 +12°C° 0.1 mm 1 mps 670 mmHg 81%
    01:00 +11°C° 0.1 mm 1 mps 670 mmHg 82%
    02:00 +11°C° 0 mm 1 mps 670 mmHg 83%
    03:00 +11°C° 0 mm 1 mps 669 mmHg 83%
    04:00 +11°C° 0 mm 1 mps 669 mmHg 84%
    05:00 +11°C° 0 mm 1 mps 670 mmHg 82%
    06:00 +12°C° 0 mm 1 mps 670 mmHg 80%
    07:00 +13°C° 0 mm 1 mps 670 mmHg 77%
    08:00 +14°C° 0.1 mm 2 mps 671 mmHg 71%
    09:00 +16°C° 0.1 mm 2 mps 671 mmHg 64%
    10:00 +18°C° 0.1 mm 2 mps 671 mmHg 57%
    11:00 +18°C° 0.7 mm 2 mps 671 mmHg 56%
    12:00 +18°C° 0.7 mm 2 mps 671 mmHg 54%
    13:00 +19°C° 0.7 mm 2 mps 671 mmHg 53%
    14:00 +18°C° 1.2 mm 2 mps 671 mmHg 57%
    15:00 +17°C° 1.2 mm 2 mps 670 mmHg 61%
    16:00 +18°C° 1.2 mm 1 mps 670 mmHg 65%
    17:00 +15°C° 1 mm 1 mps 670 mmHg 70%
    18:00 +14°C° 1 mm 1 mps 670 mmHg 75%
    19:00 +13°C° 1 mm 1 mps 669 mmHg 81%
    20:00 +13°C° 0.3 mm 1 mps 669 mmHg 82%
    21:00 +12°C° 0.3 mm 1 mps 669 mmHg 84%
    22:00 +12°C° 0.3 mm 1 mps 669 mmHg 85%
    23:00 +12°C° 0.4 mm 1 mps 669 mmHg 86%
    Show more